Location: Newark
(48.1281°N, 2.1556°W)
Time: 13:00:40
(UTC+00:00)

Envisat - Pass Details

Date: 22 November 2019
Orbit: 764 x 766 km, 98.1° (Epoch: 15 December)

Event Time Altitude Azimuth Distance (km) Brightness Sun altitude
Rises 17:05:44 0° 137° (SE) 3,224 6.0 -7.1°
Reaches altitude 10° 17:08:12 10° 128° (SE) 2,302 5.2 -7.5°
Maximum altitude 17:12:43 34° 65° (ENE) 1,253 3.6 -8.2°
Drops below altitude 10° 17:17:16 10° 2° (N) 2,315 5.3 -8.9°
Sets 17:19:45 0° 354° (N) 3,245 6.1 -9.3°
